Weather History for Blackwell, OK

Change the Weather History Date:

Thursday, October 11, 2012

  Actual Average (KPNC) Record (KPNC)
Temperature  
Mean Temperature 68 °F -  
Max Temperature 80 °F 77 °F 94 °F (1962)
Min Temperature 55 °F 53 °F 37 °F (1948)
Cooling Degree Days 2    
Growing Degree Days 18 (Base 50)    
Moisture  
Dew Point 54 °F    
Average Humidity 62    
Maximum Humidity 83    
Minimum Humidity 45    
Precipitation  
Precipitation 0.00 in - - ()
Sea Level Pressure  
Sea Level Pressure 30.05 in    
Wind  
Wind Speed 11 mph (SSE)    
Max Wind Speed 26 mph    
Max Gust Speed 39 mph    
Visibility 10 miles    
Events      
Averages and records for this station are not official NWS values.
T = Trace of Precipitation, MM = Missing Value Source: NWS Daily Summary

Daily Weather History Graph

Daily Weather History Graph

Search for Another Location

Airport:

Trip Planner

Search our weather history database for the weather conditions in past years. The results will help you decide how hot, cold, wet, or windy it might be!

Date:

Astronomy

Oct. 11, 2012 Rise Set
Actual Time 7:33 AM CDT 6:57 PM CDT
Civil Twilight 7:07 AM CDT 7:23 PM CDT
Nautical Twilight 6:37 AM CDT 7:53 PM CDT
Astronomical Twilight 6:07 AM CDT 8:23 PM CDT
Moon 3:19 AM CDT (10/11) 4:29 PM CDT (10/11)
Length of Visible Light 12h 15m
Length of Day
11h 23m
Waning Crescent, 18% of the Moon is Illuminated
Oct 11
Waning Crescent
Oct 15
New
Oct 21
First Quarter
Oct 29
Full
Nov 6
Last Quarter

Hourly Weather History & Observations

Time (CDT) Temp. Heat Index Dew Point Humidity Pressure Visibility Wind Dir Wind Speed Gust Speed Precip Events Conditions
12:15 AM 55.4 °F - 35.6 °F 47% 30.12 in 10.0 mi ESE 4.6 mph - N/A   Overcast
12:35 AM 55.4 °F - 35.6 °F 47% 30.11 in 10.0 mi ESE 3.5 mph - N/A   Overcast
1:35 AM 55.4 °F - 35.6 °F 47% 30.10 in 10.0 mi ESE 5.8 mph - N/A   Overcast
1:55 AM 55.4 °F - 35.6 °F 47% 30.09 in 10.0 mi East 5.8 mph - N/A   Overcast
2:35 AM 55.4 °F - 37.4 °F 51% 30.08 in 10.0 mi East 3.5 mph - N/A   Overcast
2:55 AM 57.2 °F - 37.4 °F 48% 30.08 in 10.0 mi East 3.5 mph - N/A   Overcast
3:15 AM 55.4 °F - 37.4 °F 51% 30.08 in 10.0 mi Calm Calm - N/A   Overcast
3:35 AM 57.2 °F - 37.4 °F 48% 30.08 in 10.0 mi SSE 4.6 mph - N/A   Overcast
3:55 AM 57.2 °F - 37.4 °F 48% 30.07 in 10.0 mi SSE 4.6 mph - N/A   Overcast
4:15 AM 57.2 °F - 39.2 °F 51% 30.07 in 10.0 mi SSE 5.8 mph - N/A   Overcast
4:35 AM 59.0 °F - 37.4 °F 45% 30.07 in 10.0 mi SSE 6.9 mph - N/A   Overcast
4:55 AM 59.0 °F - 37.4 °F 45% 30.06 in 10.0 mi SSE 8.1 mph - N/A   Overcast
5:15 AM 59.0 °F - 39.2 °F 48% 30.06 in 10.0 mi SSE 9.2 mph - N/A   Overcast
5:35 AM 59.0 °F - 39.2 °F 48% 30.06 in 10.0 mi South 9.2 mph - N/A   Overcast
5:55 AM 59.0 °F - 39.2 °F 48% 30.07 in 10.0 mi South 9.2 mph - N/A   Overcast
6:15 AM 59.0 °F - 39.2 °F 48% 30.06 in 10.0 mi South 9.2 mph - N/A   Overcast
6:35 AM 59.0 °F - 41.0 °F 51% 30.06 in 10.0 mi South 9.2 mph - N/A   Overcast
7:35 AM 59.0 °F - 44.6 °F 59% 30.07 in 10.0 mi South 11.5 mph - N/A   Overcast
7:55 AM 60.8 °F - 44.6 °F 55% 30.07 in 10.0 mi South 12.7 mph - N/A   Overcast
8:15 AM 60.8 °F - 46.4 °F 59% 30.07 in 10.0 mi South 12.7 mph - N/A   Overcast
8:35 AM 60.8 °F - 46.4 °F 59% 30.08 in 10.0 mi South 13.8 mph - N/A   Overcast
8:55 AM 62.6 °F - 48.2 °F 59% 30.08 in 10.0 mi South 12.7 mph - N/A   Overcast
9:15 AM 62.6 °F - 50.0 °F 63% 30.08 in 10.0 mi South 17.3 mph - N/A   Overcast
9:35 AM 62.6 °F - 50.0 °F 63% 30.08 in 10.0 mi South 15.0 mph 19.6 mph N/A   Overcast
9:55 AM 62.6 °F - 53.6 °F 72% 30.08 in 10.0 mi South 13.8 mph - N/A   Overcast
10:15 AM 64.4 °F - 55.4 °F 73% 30.08 in 10.0 mi South 16.1 mph - N/A   Overcast
10:35 AM 66.2 °F - 57.2 °F 73% 30.08 in 10.0 mi South 18.4 mph 21.9 mph N/A   Overcast
10:55 AM 68.0 °F - 57.2 °F 68% 30.07 in 10.0 mi South 16.1 mph - N/A   Overcast
11:15 AM 69.8 °F - 59.0 °F 68% 30.07 in 7.0 mi South 21.9 mph - N/A   Mostly Cloudy
11:35 AM 71.6 °F - 59.0 °F 64% 30.07 in 9.0 mi South 21.9 mph 26.5 mph N/A   Partly Cloudy
11:55 AM 73.4 °F - 59.0 °F 61% 30.06 in 9.0 mi South 21.9 mph 29.9 mph N/A   Partly Cloudy
12:15 PM 73.4 °F - 59.0 °F 61% 30.04 in 10.0 mi South 25.3 mph 31.1 mph N/A   Clear
12:35 PM 75.2 °F - 60.8 °F 61% 30.04 in 10.0 mi South 23.0 mph 31.1 mph N/A   Partly Cloudy
12:55 PM 73.4 °F - 60.8 °F 65% 30.03 in 10.0 mi South 25.3 mph 31.1 mph N/A   Mostly Cloudy
1:15 PM 75.2 °F - 60.8 °F 61% 30.02 in 8.0 mi South 24.2 mph 31.1 mph N/A   Mostly Cloudy
1:35 PM 75.2 °F - 60.8 °F 61% 30.01 in 10.0 mi South 25.3 mph 32.2 mph N/A   Mostly Cloudy
1:55 PM 75.2 °F - 62.6 °F 65% 30.00 in 9.0 mi South 25.3 mph 39.1 mph N/A   Overcast
2:15 PM 75.2 °F - 62.6 °F 65% 30.00 in 10.0 mi SSW 25.3 mph 33.4 mph N/A   Overcast
2:35 PM 75.2 °F - 62.6 °F 65% 29.99 in 10.0 mi SSW 26.5 mph 32.2 mph N/A   Overcast
2:55 PM 77.0 °F - 62.6 °F 61% 29.98 in 10.0 mi SSW 23.0 mph 34.5 mph N/A   Overcast
3:15 PM 78.8 °F - 62.6 °F 57% 29.98 in 10.0 mi SSW 23.0 mph 33.4 mph N/A   Partly Cloudy
3:35 PM 80.6 °F 81.8 °F 62.6 °F 54% 29.97 in 10.0 mi SSW 24.2 mph 29.9 mph N/A   Clear
3:55 PM 78.8 °F - 62.6 °F 57% 29.97 in 10.0 mi South 24.2 mph 33.4 mph N/A   Scattered Clouds
4:15 PM 78.8 °F - 62.6 °F 57% 29.97 in 10.0 mi South 21.9 mph - N/A   Mostly Cloudy
4:35 PM 78.8 °F - 62.6 °F 57% 29.97 in 10.0 mi SSW 18.4 mph - N/A   Mostly Cloudy
5:35 PM 78.8 °F - 62.6 °F 57% 29.97 in 10.0 mi South 12.7 mph 21.9 mph N/A   Partly Cloudy
5:55 PM 77.0 °F - 62.6 °F 61% 29.97 in 10.0 mi South 15.0 mph 19.6 mph N/A   Partly Cloudy
6:35 PM 77.0 °F - 64.4 °F 65% 29.98 in 10.0 mi South 12.7 mph - N/A   Partly Cloudy
6:55 PM 77.0 °F - 64.4 °F 65% 29.99 in 10.0 mi South 12.7 mph 17.3 mph N/A   Clear
7:15 PM 75.2 °F - 64.4 °F 69% 29.99 in 10.0 mi South 11.5 mph - N/A   Partly Cloudy
7:35 PM 75.2 °F - 64.4 °F 69% 30.00 in 10.0 mi South 10.4 mph - N/A   Scattered Clouds
8:15 PM 73.4 °F - 64.4 °F 73% 30.02 in 10.0 mi SSE 9.2 mph - N/A   Partly Cloudy
8:35 PM 71.6 °F - 64.4 °F 78% 30.03 in 10.0 mi SSE 10.4 mph - N/A   Partly Cloudy
8:55 PM 71.6 °F - 64.4 °F 78% 30.03 in 10.0 mi SE 8.1 mph - N/A   Mostly Cloudy
9:15 PM 69.8 °F - 64.4 °F 83% 30.03 in 10.0 mi SE 10.4 mph - N/A   Overcast
9:35 PM 69.8 °F - 64.4 °F 83% 30.04 in 10.0 mi SSE 8.1 mph - N/A   Mostly Cloudy
9:55 PM 69.8 °F - 64.4 °F 83% 30.04 in 10.0 mi SSE 12.7 mph - N/A   Partly Cloudy
10:35 PM 69.8 °F - 64.4 °F 83% 30.06 in 10.0 mi South 13.8 mph - N/A   Clear
10:55 PM 71.6 °F - 64.4 °F 78% 30.07 in 10.0 mi SSE 10.4 mph - N/A   Partly Cloudy
11:15 PM 71.6 °F - 64.4 °F 78% 30.07 in 10.0 mi SSE 11.5 mph - N/A   Mostly Cloudy
11:35 PM 71.6 °F - 64.4 °F 78% 30.08 in 10.0 mi SSE 11.5 mph - N/A   Overcast
11:55 PM 71.6 °F - 64.4 °F 78% 30.09 in 10.0 mi SSE 9.2 mph - N/A   Overcast